Location: Namasale
(1.5000°N, 32.6167°E)
Time: 16:34:07
(UTC+00:00)

Vanguard 1 Rocket - Pass Details

Date: 25 April 2021
Orbit: 651 x 4225 km, 34.3° (Epoch: 17 May)

Event Time Altitude Azimuth Distance (km) Brightness Sun altitude
Rises 01:11:23 0° 224° (SW) 7,747 - -37.4°
Reaches altitude 10° 01:18:41 10° 211° (SSW) 7,123 - -35.6°
Exits shadow 01:21:38 14° 205° (SSW) 6,906 11.5 -34.9°
Maximum altitude 01:37:51 25° 162° (SSE) 6,170 11.5 -31.1°
Drops below altitude 10° 01:55:19 10° 114° (ESE) 6,608 12.4 -26.9°
Sets 02:01:28 0° 102° (ESE) 7,133 13.0 -25.4°
